Location: Heidgraben
(53.7081°N, 9.6576°E)
Time: 09:44:32
(UTC+00:00)

Cosmos 371 Rocket - Pass Details

Date: 05 July 2020
Orbit: 684 x 699 km, 74.0° (Epoch: 05 August)

Event Time Altitude Azimuth Distance (km) Brightness Sun altitude
Rises 23:40:54 0° 328° (NNW) 3,088 7.6 -13.6°
Reaches altitude 10° 23:43:25 10° 318° (NW) 2,163 6.5 -13.5°
Maximum altitude 23:47:41 31° 257° (WSW) 1,199 4.4 -13.5°
Enters shadow 23:50:24 18° 207° (SSW) 1,651 4.7 -13.5°
